Flag for Norway Weather past 2 weeks in Gjøvik, Norway

Now
70 °F

Mild.


Feels Like: 77 °F
Forecast: 56 / 76 °F
Wind: 3 mph from Southeast

Location: Lillehammer-Saetherengen

Current Time: Jul 2, 2015 at 11:53:16 PM

Latest Report: Jul 2, 2015 at 10:00 PM


Visibility: N/A

Pressure: 30.22 "Hg

Humidity: 46%

Dew point: 49 °F

Location of GjøvikLocation

Historic Weather in Gjøvik — Graph

°F

Gjøvik temperature yesterday

Maximum temperature yesterday: 81 °F (at 6:00 PM)
Minimum temperature yesterday: 56 °F (at 6:00 AM)
Average temperature yesterday: 69 °F

Past Weeks' High & Low Weather Summary

 TemperatureHumidityPressure
High81 °F (Jul 1, 6:00 PM)95% (Jun 23, 4:00 AM)30.27 "Hg (Jun 23, 4:00 AM)
Low46 °F (Jun 19, 4:00 AM)32% (Jun 21, 6:00 PM)29.58 "Hg (Jun 18, 3:00 PM)
Average59 °F67%29.87 "Hg
* Reported Jun 17 10:00 PM — Jul 2 10:00 PM, Gjøvik, Weather by CustomWeather, © 2015

Note: Actual official high and low records may vary slightly from our data, if they occured in-between our weather recording intervals... More about our weather records

Advertising

Gjøvik weather history for previous 24 hours

 ConditionsComfort  
Time TempWeatherWind HumidityBarometerVisibility
10:00 PM
Thu, Jul 2
70 °FMild.3 mph46%30.22 "HgN/A
9:00 PM74 °FMild.5 mph37%30.20 "HgN/A
8:00 PM76 °FMild.5 mph37%30.19 "HgN/A
7:00 PM78 °FPleasantly warm.5 mph36%30.19 "HgN/A
6:00 PM78 °FPleasantly warm.6 mph38%30.19 "HgN/A
5:00 PM78 °FWarm.5 mph41%30.19 "HgN/A
4:00 PM79 °FPleasantly warm.5 mph39%30.19 "HgN/A
3:00 PM79 °FPleasantly warm.6 mph37%30.20 "HgN/A
2:00 PM80 °FPleasantly warm.5 mph37%30.20 "HgN/A
1:00 PM78 °FPleasantly warm.6 mph36%30.22 "HgN/A
12:00 PM76 °FMild.3 mph44%30.23 "HgN/A
11:00 AM74 °FMild.3 mph50%30.24 "HgN/A
10:00 AM70 °FMild.1 mph56%30.25 "HgN/A
9:00 AM65 °FMild.1 mph66%30.27 "HgN/A
8:00 AM63 °FMild.1 mph71%30.27 "HgN/A
7:00 AM61 °FCool.1 mph75%30.26 "HgN/A
6:00 AM57 °FCool.No wind85%30.27 "HgN/A
5:00 AM58 °FCool.1 mph84%30.26 "HgN/A
4:00 AM59 °FCool.1 mph79%30.25 "HgN/A
3:00 AM62 °FCool.1 mph75%30.24 "HgN/A
2:00 AM64 °FMild.No wind70%30.23 "HgN/A
1:00 AM67 °FMild.1 mph68%30.21 "HgN/A
12:00 AM67 °FMild.1 mph70%30.20 "HgN/A
11:00 PM
Wed, Jul 1
72 °FMild.2 mph59%30.17 "HgN/A
Weather by CustomWeather, © 2015

See weather overviewHow to use our weather pages